Year,Month,Day,Hour,Minute,Value (Times are PST for temperature in C)
2022,02,05,00,00,5.40
2022,02,05,00,01,5.40
2022,02,05,00,02,5.40
2022,02,05,00,03,5.40
2022,02,05,00,04,5.40
2022,02,05,00,05,5.40
2022,02,05,00,06,5.40
2022,02,05,00,07,5.40
2022,02,05,00,08,5.40
2022,02,05,00,09,5.40
2022,02,05,00,10,5.40
2022,02,05,00,11,5.40
2022,02,05,00,12,5.40
2022,02,05,00,13,5.40
2022,02,05,00,14,5.40
2022,02,05,00,15,5.40
2022,02,05,00,16,5.40
2022,02,05,00,17,5.40
2022,02,05,00,18,5.40
2022,02,05,00,19,5.40
2022,02,05,00,20,5.40
2022,02,05,00,21,5.40
2022,02,05,00,22,5.40
2022,02,05,00,23,5.40
2022,02,05,00,24,5.40
2022,02,05,00,25,5.40
2022,02,05,00,26,5.40
2022,02,05,00,27,5.40
2022,02,05,00,28,5.40
2022,02,05,00,29,5.30
2022,02,05,00,30,5.30
2022,02,05,00,31,5.30
2022,02,05,00,32,5.30
2022,02,05,00,33,5.30
2022,02,05,00,34,5.30
2022,02,05,00,35,5.30
2022,02,05,00,36,5.30
2022,02,05,00,37,5.30
2022,02,05,00,38,5.30
2022,02,05,00,39,5.30
2022,02,05,00,40,5.30
2022,02,05,00,41,5.30
2022,02,05,00,42,5.30
2022,02,05,00,43,5.30
2022,02,05,00,44,5.30
2022,02,05,00,45,5.30
2022,02,05,00,46,5.30
2022,02,05,00,47,5.30
2022,02,05,00,48,5.30
2022,02,05,00,49,5.30
2022,02,05,00,50,5.40
2022,02,05,00,51,5.40
2022,02,05,00,52,5.40
2022,02,05,00,53,5.40
2022,02,05,00,54,5.50
2022,02,05,00,55,5.40
2022,02,05,00,56,5.50
2022,02,05,00,57,5.50
2022,02,05,00,58,5.50
2022,02,05,00,59,5.50
2022,02,05,01,00,5.50
2022,02,05,01,01,5.50
2022,02,05,01,02,5.50
2022,02,05,01,03,5.50
2022,02,05,01,04,5.50
2022,02,05,01,05,5.50
2022,02,05,01,06,5.50
2022,02,05,01,07,5.50
2022,02,05,01,08,5.50
2022,02,05,01,09,5.50
2022,02,05,01,10,5.50
2022,02,05,01,11,5.50
2022,02,05,01,12,5.50
2022,02,05,01,13,5.50
2022,02,05,01,14,5.50
2022,02,05,01,15,5.50
2022,02,05,01,16,5.50
2022,02,05,01,17,5.50
2022,02,05,01,18,5.40
2022,02,05,01,19,5.40
2022,02,05,01,20,5.40
2022,02,05,01,21,5.40
2022,02,05,01,22,5.40
2022,02,05,01,23,5.40
2022,02,05,01,24,5.30
2022,02,05,01,25,5.40
2022,02,05,01,26,5.30
2022,02,05,01,27,5.30
2022,02,05,01,28,5.30
2022,02,05,01,29,5.30
2022,02,05,01,30,5.30
2022,02,05,01,31,5.30
2022,02,05,01,32,5.30
2022,02,05,01,33,5.30
2022,02,05,01,34,5.30
2022,02,05,01,35,5.30
2022,02,05,01,36,5.30
2022,02,05,01,37,5.30
2022,02,05,01,38,5.40
2022,02,05,01,39,5.40
2022,02,05,01,40,5.40
2022,02,05,01,41,5.40
2022,02,05,01,42,5.40
2022,02,05,01,43,5.40
2022,02,05,01,44,5.40
2022,02,05,01,45,5.40
2022,02,05,01,46,5.40
2022,02,05,01,47,5.40
2022,02,05,01,48,5.50
2022,02,05,01,49,5.60
2022,02,05,01,50,5.60
2022,02,05,01,51,5.60
2022,02,05,01,52,5.60
2022,02,05,01,53,5.60
2022,02,05,01,54,5.60
2022,02,05,01,55,5.60
2022,02,05,01,56,5.70
2022,02,05,01,57,5.60
2022,02,05,01,58,5.60
2022,02,05,01,59,5.60
2022,02,05,02,00,5.60
2022,02,05,02,01,5.60
2022,02,05,02,02,5.60
2022,02,05,02,03,5.60
2022,02,05,02,04,5.70
2022,02,05,02,05,5.70
2022,02,05,02,06,5.70
2022,02,05,02,07,5.70
2022,02,05,02,08,5.70
2022,02,05,02,09,5.70
2022,02,05,02,10,5.70
2022,02,05,02,11,5.70
2022,02,05,02,12,5.80
2022,02,05,02,13,5.80
2022,02,05,02,14,5.80
2022,02,05,02,15,5.80
2022,02,05,02,16,5.90
2022,02,05,02,17,5.90
2022,02,05,02,18,5.90
2022,02,05,02,19,6.00
2022,02,05,02,20,6.00
2022,02,05,02,21,6.00
2022,02,05,02,22,6.00
2022,02,05,02,23,6.00
2022,02,05,02,24,6.00
2022,02,05,02,25,6.00
2022,02,05,02,26,6.10
2022,02,05,02,27,6.00
2022,02,05,02,28,6.10
2022,02,05,02,29,6.00
2022,02,05,02,30,6.00
2022,02,05,02,31,6.00
2022,02,05,02,32,6.00
2022,02,05,02,33,5.90
2022,02,05,02,34,5.90
2022,02,05,02,35,5.90
2022,02,05,02,36,5.90
2022,02,05,02,37,5.90
2022,02,05,02,38,5.90
2022,02,05,02,39,5.90
2022,02,05,02,40,5.90
2022,02,05,02,41,5.90
2022,02,05,02,42,6.00
2022,02,05,02,43,6.00
2022,02,05,02,44,6.00
2022,02,05,02,45,6.00
2022,02,05,02,46,6.00
2022,02,05,02,47,5.90
2022,02,05,02,48,6.00
2022,02,05,02,49,6.00
2022,02,05,02,50,6.00
2022,02,05,02,51,6.00
2022,02,05,02,52,6.00
2022,02,05,02,53,6.00
2022,02,05,02,54,6.00
2022,02,05,02,55,6.00
2022,02,05,02,56,6.00
2022,02,05,02,57,6.00
2022,02,05,02,58,6.00
2022,02,05,02,59,6.00
2022,02,05,03,00,6.00
2022,02,05,03,01,6.00
2022,02,05,03,02,6.00
2022,02,05,03,03,6.00
2022,02,05,03,04,6.00
2022,02,05,03,05,6.00
2022,02,05,03,06,6.00
2022,02,05,03,07,5.90
2022,02,05,03,08,5.90
2022,02,05,03,09,5.90
2022,02,05,03,10,5.90
2022,02,05,03,11,5.90
2022,02,05,03,12,5.90
2022,02,05,03,13,5.90
2022,02,05,03,14,5.90
2022,02,05,03,15,5.90
2022,02,05,03,16,5.90
2022,02,05,03,17,5.90
2022,02,05,03,18,5.90
2022,02,05,03,19,5.90
2022,02,05,03,20,5.90
2022,02,05,03,21,5.90
2022,02,05,03,22,5.90
2022,02,05,03,23,5.80
2022,02,05,03,24,5.80
2022,02,05,03,25,5.80
2022,02,05,03,26,5.80
2022,02,05,03,27,5.80
2022,02,05,03,28,5.80
2022,02,05,03,29,5.70
2022,02,05,03,30,5.70
2022,02,05,03,31,5.70
2022,02,05,03,32,5.70
2022,02,05,03,33,5.70
2022,02,05,03,34,5.70
2022,02,05,03,35,5.70
2022,02,05,03,36,5.70
2022,02,05,03,37,5.70
2022,02,05,03,38,5.60
2022,02,05,03,39,5.60
2022,02,05,03,40,5.60
2022,02,05,03,41,5.60
2022,02,05,03,42,5.60
2022,02,05,03,43,5.50
2022,02,05,03,44,5.50
2022,02,05,03,45,5.50
2022,02,05,03,46,5.40
2022,02,05,03,47,5.40
2022,02,05,03,48,5.40
2022,02,05,03,49,5.40
2022,02,05,03,50,5.40
2022,02,05,03,51,5.40
2022,02,05,03,52,5.40
2022,02,05,03,53,5.40
2022,02,05,03,54,5.40
2022,02,05,03,55,5.40
2022,02,05,03,56,5.40
2022,02,05,03,57,5.40
2022,02,05,03,58,5.40
2022,02,05,03,59,5.40
2022,02,05,04,00,5.40
2022,02,05,04,01,5.40
2022,02,05,04,02,5.40
2022,02,05,04,03,5.40
2022,02,05,04,04,5.40
2022,02,05,04,05,5.40
2022,02,05,04,06,5.40
2022,02,05,04,07,5.40
2022,02,05,04,08,5.40
2022,02,05,04,09,5.40
2022,02,05,04,10,5.40
2022,02,05,04,11,5.40
2022,02,05,04,12,5.40
2022,02,05,04,13,5.40
2022,02,05,04,14,5.40
2022,02,05,04,15,5.30
2022,02,05,04,16,5.30
2022,02,05,04,17,5.30
2022,02,05,04,18,5.30
2022,02,05,04,19,5.40
2022,02,05,04,20,5.40
2022,02,05,04,21,5.40
2022,02,05,04,22,5.40
2022,02,05,04,23,5.40
2022,02,05,04,24,5.40
2022,02,05,04,25,5.40
2022,02,05,04,26,5.40
2022,02,05,04,27,5.40
2022,02,05,04,28,5.40
2022,02,05,04,29,5.40
2022,02,05,04,30,5.40
2022,02,05,04,31,5.40
2022,02,05,04,32,5.40
2022,02,05,04,33,5.40
2022,02,05,04,34,5.40
2022,02,05,04,35,5.40
2022,02,05,04,36,5.40
2022,02,05,04,37,5.40
2022,02,05,04,38,5.40
2022,02,05,04,39,5.40
2022,02,05,04,40,5.30
2022,02,05,04,41,5.40
2022,02,05,04,42,5.40
2022,02,05,04,43,5.40
2022,02,05,04,44,5.40
2022,02,05,04,45,5.30
2022,02,05,04,46,5.30
2022,02,05,04,47,5.30
2022,02,05,04,48,5.30
2022,02,05,04,49,5.30
2022,02,05,04,50,5.30
2022,02,05,04,51,5.30
2022,02,05,04,52,5.30
2022,02,05,04,53,5.30
2022,02,05,04,54,5.30
2022,02,05,04,55,5.30
2022,02,05,04,56,5.20
2022,02,05,04,57,5.20
2022,02,05,04,58,5.20
2022,02,05,04,59,5.20
2022,02,05,05,00,5.20
2022,02,05,05,01,5.20
2022,02,05,05,02,5.20
2022,02,05,05,03,5.20
2022,02,05,05,04,5.20
2022,02,05,05,05,5.20
2022,02,05,05,06,5.20
2022,02,05,05,07,5.20
2022,02,05,05,08,5.20
2022,02,05,05,09,5.20
2022,02,05,05,10,5.10
2022,02,05,05,11,5.10
2022,02,05,05,12,5.10
2022,02,05,05,13,5.10
2022,02,05,05,14,5.00
2022,02,05,05,15,4.90
2022,02,05,05,16,4.90
2022,02,05,05,17,4.80
2022,02,05,05,18,4.80
2022,02,05,05,19,4.70
2022,02,05,05,20,4.70
2022,02,05,05,21,4.70
2022,02,05,05,22,4.70
2022,02,05,05,23,4.70
2022,02,05,05,24,4.70
2022,02,05,05,25,4.70
2022,02,05,05,26,4.70
2022,02,05,05,27,4.70
2022,02,05,05,28,4.70
2022,02,05,05,29,4.70
2022,02,05,05,30,4.70
2022,02,05,05,31,4.60
2022,02,05,05,32,4.50
2022,02,05,05,33,4.50
2022,02,05,05,34,4.40
2022,02,05,05,35,4.30
2022,02,05,05,36,4.30
2022,02,05,05,37,4.30
2022,02,05,05,38,4.20
2022,02,05,05,39,4.20
2022,02,05,05,40,4.10
2022,02,05,05,41,4.10
2022,02,05,05,42,4.00
2022,02,05,05,43,4.00
2022,02,05,05,44,4.00
2022,02,05,05,45,4.00
2022,02,05,05,46,4.00
2022,02,05,05,47,4.00
2022,02,05,05,48,4.00
2022,02,05,05,49,4.00
2022,02,05,05,50,4.00
2022,02,05,05,51,4.00
2022,02,05,05,52,4.00
2022,02,05,05,53,4.00
2022,02,05,05,54,4.10
2022,02,05,05,55,4.10
2022,02,05,05,56,4.10
2022,02,05,05,57,4.10
2022,02,05,05,58,4.10
2022,02,05,05,59,4.00
2022,02,05,06,00,4.00
2022,02,05,06,01,4.00
2022,02,05,06,02,4.00
2022,02,05,06,03,4.10
2022,02,05,06,04,4.10
2022,02,05,06,05,4.00
2022,02,05,06,06,4.00
2022,02,05,06,07,3.90
2022,02,05,06,08,3.90
2022,02,05,06,09,3.90
2022,02,05,06,10,3.90
2022,02,05,06,11,3.90
2022,02,05,06,12,3.90
2022,02,05,06,13,3.80
2022,02,05,06,14,3.80
2022,02,05,06,15,3.80
2022,02,05,06,16,3.70
2022,02,05,06,17,3.70
2022,02,05,06,18,3.70
2022,02,05,06,19,3.60
2022,02,05,06,20,3.50
2022,02,05,06,21,3.40
2022,02,05,06,22,3.40
2022,02,05,06,23,3.30
2022,02,05,06,24,3.30
2022,02,05,06,25,3.30
2022,02,05,06,26,3.20
2022,02,05,06,27,3.20
2022,02,05,06,28,3.20
2022,02,05,06,29,3.10
2022,02,05,06,30,3.10
2022,02,05,06,31,3.10
2022,02,05,06,32,3.10
2022,02,05,06,33,3.00
2022,02,05,06,34,3.00
2022,02,05,06,35,3.00
2022,02,05,06,36,3.00
2022,02,05,06,37,3.00
2022,02,05,06,38,2.90
2022,02,05,06,39,2.90
2022,02,05,06,40,2.90
2022,02,05,06,41,2.90
2022,02,05,06,42,2.90
2022,02,05,06,43,2.90
2022,02,05,06,44,3.00
2022,02,05,06,45,3.00
2022,02,05,06,46,3.00
2022,02,05,06,47,3.00
2022,02,05,06,48,3.00
2022,02,05,06,49,3.10
2022,02,05,06,50,3.10
2022,02,05,06,51,3.10
2022,02,05,06,52,3.20
2022,02,05,06,53,3.20
2022,02,05,06,54,3.20
2022,02,05,06,55,3.20
2022,02,05,06,56,3.20
2022,02,05,06,57,3.20
2022,02,05,06,58,3.20
2022,02,05,06,59,3.20
2022,02,05,07,00,3.20
2022,02,05,07,01,3.20
2022,02,05,07,02,3.20
2022,02,05,07,03,3.20
2022,02,05,07,04,3.20
2022,02,05,07,05,3.20
2022,02,05,07,06,3.20
2022,02,05,07,07,3.20
2022,02,05,07,08,3.20
2022,02,05,07,09,3.20
2022,02,05,07,10,3.10
2022,02,05,07,11,3.20
2022,02,05,07,12,3.20
2022,02,05,07,13,3.20
2022,02,05,07,14,3.30
2022,02,05,07,15,3.30
2022,02,05,07,16,3.30
2022,02,05,07,17,3.30
2022,02,05,07,18,3.40
2022,02,05,07,19,3.40
2022,02,05,07,20,3.50
2022,02,05,07,21,3.50
2022,02,05,07,22,3.50
2022,02,05,07,23,3.50
2022,02,05,07,24,3.50
2022,02,05,07,25,3.50
2022,02,05,07,26,3.60
2022,02,05,07,27,3.60
2022,02,05,07,28,3.60
2022,02,05,07,29,3.60
2022,02,05,07,30,3.60
2022,02,05,07,31,3.60
2022,02,05,07,32,3.60
2022,02,05,07,33,3.60
2022,02,05,07,34,3.60
2022,02,05,07,35,3.60
2022,02,05,07,36,3.60
2022,02,05,07,37,3.60
2022,02,05,07,38,3.60
2022,02,05,07,39,3.60
2022,02,05,07,40,3.60
2022,02,05,07,41,3.60
2022,02,05,07,42,3.60
2022,02,05,07,43,3.60
2022,02,05,07,44,3.50
2022,02,05,07,45,3.50
2022,02,05,07,46,3.50
2022,02,05,07,47,3.50
2022,02,05,07,48,3.50
2022,02,05,07,49,3.50
2022,02,05,07,50,3.50
2022,02,05,07,51,3.50
2022,02,05,07,52,3.40
2022,02,05,07,53,3.40
2022,02,05,07,54,3.40
2022,02,05,07,55,3.40
2022,02,05,07,56,3.40
2022,02,05,07,57,3.40
2022,02,05,07,58,3.30
2022,02,05,07,59,3.30
2022,02,05,08,00,3.30
2022,02,05,08,01,3.20
2022,02,05,08,02,3.20
2022,02,05,08,03,3.20
2022,02,05,08,04,3.10
2022,02,05,08,05,3.10
2022,02,05,08,06,3.10
2022,02,05,08,07,3.00
2022,02,05,08,08,3.00
2022,02,05,08,09,3.00
2022,02,05,08,10,2.90
2022,02,05,08,11,2.90
2022,02,05,08,12,2.90
2022,02,05,08,13,2.80
2022,02,05,08,14,2.80
2022,02,05,08,15,2.80
2022,02,05,08,16,2.80
2022,02,05,08,17,2.80
2022,02,05,08,18,2.70
2022,02,05,08,19,2.70
2022,02,05,08,20,2.70
2022,02,05,08,21,2.60
2022,02,05,08,22,2.60
2022,02,05,08,23,2.60
2022,02,05,08,24,2.50
2022,02,05,08,25,2.50
2022,02,05,08,26,2.50
2022,02,05,08,27,2.40
2022,02,05,08,28,2.40
2022,02,05,08,29,2.40
2022,02,05,08,30,2.40
2022,02,05,08,31,2.40
2022,02,05,08,32,2.40
2022,02,05,08,33,2.30
2022,02,05,08,34,2.30
2022,02,05,08,35,2.30
2022,02,05,08,36,2.30
2022,02,05,08,37,2.30
2022,02,05,08,38,2.30
2022,02,05,08,39,2.30
2022,02,05,08,40,2.30
2022,02,05,08,41,2.30
2022,02,05,08,42,2.30
2022,02,05,08,43,2.30
2022,02,05,08,44,2.30
2022,02,05,08,45,2.30
2022,02,05,08,46,2.30
2022,02,05,08,47,2.30
2022,02,05,08,48,2.30
2022,02,05,08,49,2.30
2022,02,05,08,50,2.30
2022,02,05,08,51,2.30
2022,02,05,08,52,2.30
2022,02,05,08,53,2.30
2022,02,05,08,54,2.40
2022,02,05,08,55,2.40
2022,02,05,08,56,2.40
2022,02,05,08,57,2.40
2022,02,05,08,58,2.40
2022,02,05,08,59,2.50
2022,02,05,09,00,2.50
2022,02,05,09,01,2.50
2022,02,05,09,02,2.50
2022,02,05,09,03,2.60
2022,02,05,09,04,2.60
2022,02,05,09,05,2.60
2022,02,05,09,06,2.70
2022,02,05,09,07,2.70
2022,02,05,09,08,2.70
2022,02,05,09,09,2.70
2022,02,05,09,10,2.80
2022,02,05,09,11,2.80
2022,02,05,09,12,2.80
2022,02,05,09,13,2.80
2022,02,05,09,14,2.80
2022,02,05,09,15,2.80
2022,02,05,09,16,2.80
2022,02,05,09,17,2.80
2022,02,05,09,18,2.90
2022,02,05,09,19,2.90
2022,02,05,09,20,2.90
2022,02,05,09,21,2.90
2022,02,05,09,22,3.00
2022,02,05,09,23,3.00
2022,02,05,09,24,3.00
2022,02,05,09,25,3.10
2022,02,05,09,26,3.10
2022,02,05,09,27,3.10
2022,02,05,09,28,3.10
2022,02,05,09,29,3.20
2022,02,05,09,30,3.20
2022,02,05,09,31,3.20
2022,02,05,09,32,3.30
2022,02,05,09,33,3.30
2022,02,05,09,34,3.30
2022,02,05,09,35,3.30
2022,02,05,09,36,3.30
2022,02,05,09,37,3.30
2022,02,05,09,38,3.30
2022,02,05,09,39,3.30
2022,02,05,09,40,3.30
2022,02,05,09,41,3.30
2022,02,05,09,42,3.40
2022,02,05,09,43,3.40
2022,02,05,09,44,3.40
2022,02,05,09,45,3.40
2022,02,05,09,46,3.50
2022,02,05,09,47,3.50
2022,02,05,09,48,3.50
2022,02,05,09,49,3.60
2022,02,05,09,50,3.60
2022,02,05,09,51,3.70
2022,02,05,09,52,3.70
2022,02,05,09,53,3.70
2022,02,05,09,54,3.80
2022,02,05,09,55,3.80
2022,02,05,09,56,3.80
2022,02,05,09,57,3.80
2022,02,05,09,58,3.80
2022,02,05,09,59,3.90
2022,02,05,10,00,3.90
2022,02,05,10,01,3.90
2022,02,05,10,02,3.90
2022,02,05,10,03,4.00
2022,02,05,10,04,4.00
2022,02,05,10,05,4.00
2022,02,05,10,06,4.10
2022,02,05,10,07,4.10
2022,02,05,10,08,4.10
2022,02,05,10,09,4.10
2022,02,05,10,10,4.10
2022,02,05,10,11,4.20
2022,02,05,10,12,4.20
2022,02,05,10,13,4.20
2022,02,05,10,14,4.20
2022,02,05,10,15,4.20
2022,02,05,10,16,4.20
2022,02,05,10,17,4.20
2022,02,05,10,18,4.30
2022,02,05,10,19,4.30
2022,02,05,10,20,4.30
2022,02,05,10,21,4.30
2022,02,05,10,22,4.30
2022,02,05,10,23,4.30
2022,02,05,10,24,4.40
2022,02,05,10,25,4.40
2022,02,05,10,26,4.40
2022,02,05,10,27,4.40
2022,02,05,10,28,4.40
2022,02,05,10,29,4.40
2022,02,05,10,30,4.50
2022,02,05,10,31,4.50
2022,02,05,10,32,4.50
2022,02,05,10,33,4.50
2022,02,05,10,34,4.50
2022,02,05,10,35,4.50
2022,02,05,10,36,4.50
2022,02,05,10,37,4.50
2022,02,05,10,38,4.50
2022,02,05,10,39,4.50
2022,02,05,10,40,4.60
2022,02,05,10,41,4.60
2022,02,05,10,42,4.60
2022,02,05,10,43,4.60
2022,02,05,10,44,4.60
2022,02,05,10,45,4.60
2022,02,05,10,46,4.60
2022,02,05,10,47,4.70
2022,02,05,10,48,4.70
2022,02,05,10,49,4.70
2022,02,05,10,50,4.70
2022,02,05,10,51,4.70
2022,02,05,10,52,4.70
2022,02,05,10,53,4.70
2022,02,05,10,54,4.70
2022,02,05,10,55,4.80
2022,02,05,10,56,4.80
2022,02,05,10,57,4.80
2022,02,05,10,58,4.80
2022,02,05,10,59,4.80
2022,02,05,11,00,4.80
2022,02,05,11,01,4.80
2022,02,05,11,02,4.90
2022,02,05,11,03,4.90
2022,02,05,11,04,4.90
2022,02,05,11,05,4.90
2022,02,05,11,06,4.90
2022,02,05,11,07,4.90
2022,02,05,11,08,5.00
2022,02,05,11,09,5.00
2022,02,05,11,10,5.00
2022,02,05,11,11,5.10
2022,02,05,11,12,5.10
2022,02,05,11,13,5.10
2022,02,05,11,14,5.10
2022,02,05,11,15,5.10
2022,02,05,11,16,5.10
2022,02,05,11,17,5.10
2022,02,05,11,18,5.20
2022,02,05,11,19,5.20
2022,02,05,11,20,5.20
2022,02,05,11,21,5.20
2022,02,05,11,22,5.20
2022,02,05,11,23,5.20
2022,02,05,11,24,5.20
2022,02,05,11,25,5.30
2022,02,05,11,26,5.30
2022,02,05,11,27,5.30
2022,02,05,11,28,5.30
2022,02,05,11,29,5.30
2022,02,05,11,30,5.40
2022,02,05,11,31,5.40
2022,02,05,11,32,5.40
2022,02,05,11,33,5.50
2022,02,05,11,34,5.60
2022,02,05,11,35,5.60
2022,02,05,11,36,5.70
2022,02,05,11,37,5.70
2022,02,05,11,38,5.80
2022,02,05,11,39,5.80
2022,02,05,11,40,5.90
2022,02,05,11,41,5.90
2022,02,05,11,42,6.00
2022,02,05,11,43,6.00
2022,02,05,11,44,6.10
2022,02,05,11,45,6.10
2022,02,05,11,46,6.10
2022,02,05,11,47,6.20
2022,02,05,11,48,6.20
2022,02,05,11,49,6.20
2022,02,05,11,50,6.10
2022,02,05,11,51,6.10
2022,02,05,11,52,6.10
2022,02,05,11,53,6.10
2022,02,05,11,54,6.10
2022,02,05,11,55,6.10
2022,02,05,11,56,6.10
2022,02,05,11,57,6.10
2022,02,05,11,58,6.10
2022,02,05,11,59,6.20
2022,02,05,12,00,6.20
2022,02,05,12,01,6.20
2022,02,05,12,02,6.20
2022,02,05,12,03,6.20
2022,02,05,12,04,6.20
2022,02,05,12,05,6.20
2022,02,05,12,06,6.20
2022,02,05,12,07,6.20
2022,02,05,12,08,6.20
2022,02,05,12,09,6.20
2022,02,05,12,10,6.20
2022,02,05,12,11,6.20
2022,02,05,12,12,6.20
2022,02,05,12,13,6.20
2022,02,05,12,14,6.30
2022,02,05,12,15,6.30
2022,02,05,12,16,6.30
2022,02,05,12,17,6.30
2022,02,05,12,18,6.30
2022,02,05,12,19,6.30
2022,02,05,12,20,6.40
2022,02,05,12,21,6.40
2022,02,05,12,22,6.40
2022,02,05,12,23,6.40
2022,02,05,12,24,6.30
2022,02,05,12,25,6.30
2022,02,05,12,26,6.30
2022,02,05,12,27,6.40
2022,02,05,12,28,6.40
2022,02,05,12,29,6.40
2022,02,05,12,30,6.40
2022,02,05,12,31,6.40
2022,02,05,12,32,6.40
2022,02,05,12,33,6.40
2022,02,05,12,34,6.40
2022,02,05,12,35,6.40
2022,02,05,12,36,6.40
2022,02,05,12,37,6.40
2022,02,05,12,38,6.40
2022,02,05,12,39,6.40
2022,02,05,12,40,6.50
2022,02,05,12,41,6.50
2022,02,05,12,42,6.50
2022,02,05,12,43,6.50
2022,02,05,12,44,6.50
2022,02,05,12,45,6.50
2022,02,05,12,46,6.60
2022,02,05,12,47,6.60
2022,02,05,12,48,6.60
2022,02,05,12,49,6.60
2022,02,05,12,50,6.60
2022,02,05,12,51,6.60
2022,02,05,12,52,6.60
2022,02,05,12,53,6.60
2022,02,05,12,54,6.70
2022,02,05,12,55,6.70
2022,02,05,12,56,6.70
2022,02,05,12,57,6.80
2022,02,05,12,58,6.80
2022,02,05,12,59,6.80
2022,02,05,13,00,6.90
2022,02,05,13,01,6.90
2022,02,05,13,02,6.90
2022,02,05,13,03,6.90
2022,02,05,13,04,7.00
2022,02,05,13,05,7.00
2022,02,05,13,06,7.00
2022,02,05,13,07,7.00
2022,02,05,13,08,7.10
2022,02,05,13,09,7.10
2022,02,05,13,10,7.10
2022,02,05,13,11,7.10
2022,02,05,13,12,7.10
2022,02,05,13,13,7.20
2022,02,05,13,14,7.20
2022,02,05,13,15,7.20
2022,02,05,13,16,7.30
2022,02,05,13,17,7.30
2022,02,05,13,18,7.30
2022,02,05,13,19,7.40
2022,02,05,13,20,7.40
2022,02,05,13,21,7.50
2022,02,05,13,22,7.50
2022,02,05,13,23,7.60
2022,02,05,13,24,7.60
2022,02,05,13,25,7.60
2022,02,05,13,26,7.60
2022,02,05,13,27,7.60
2022,02,05,13,28,7.60
2022,02,05,13,29,7.60
2022,02,05,13,30,7.60
2022,02,05,13,31,7.60
2022,02,05,13,32,7.50
2022,02,05,13,33,7.50
2022,02,05,13,34,7.50
2022,02,05,13,35,7.50
2022,02,05,13,36,7.50
2022,02,05,13,37,7.50
2022,02,05,13,38,7.60
2022,02,05,13,39,7.60
2022,02,05,13,40,7.60
2022,02,05,13,41,7.60
2022,02,05,13,42,7.60
2022,02,05,13,43,7.60
2022,02,05,13,44,7.50
2022,02,05,13,45,7.50
2022,02,05,13,46,7.50
2022,02,05,13,47,7.60
2022,02,05,13,48,7.60
2022,02,05,13,49,7.60
2022,02,05,13,50,7.70
2022,02,05,13,51,7.70
2022,02,05,13,52,7.70
2022,02,05,13,53,7.80
2022,02,05,13,54,7.80
2022,02,05,13,55,7.90
2022,02,05,13,56,7.90
2022,02,05,13,57,7.90
2022,02,05,13,58,7.90
2022,02,05,13,59,7.90
2022,02,05,14,00,7.90
2022,02,05,14,01,7.90
2022,02,05,14,02,7.90
2022,02,05,14,03,7.90
2022,02,05,14,04,7.90
2022,02,05,14,05,7.90
2022,02,05,14,06,7.90
2022,02,05,14,07,7.90
2022,02,05,14,08,7.90
2022,02,05,14,09,7.90
2022,02,05,14,10,8.00
2022,02,05,14,11,8.00
2022,02,05,14,12,8.00
2022,02,05,14,13,8.00
2022,02,05,14,14,8.00
2022,02,05,14,15,8.10
2022,02,05,14,16,8.10
2022,02,05,14,17,8.10
2022,02,05,14,18,8.10
2022,02,05,14,19,8.10
2022,02,05,14,20,8.10
2022,02,05,14,21,8.10
2022,02,05,14,22,8.20
2022,02,05,14,23,8.20
2022,02,05,14,24,8.20
2022,02,05,14,25,8.20
2022,02,05,14,26,8.30
2022,02,05,14,27,8.30
2022,02,05,14,28,8.30
2022,02,05,14,29,8.40
2022,02,05,14,30,8.40
2022,02,05,14,31,8.40
2022,02,05,14,32,8.40
2022,02,05,14,33,8.40
2022,02,05,14,34,8.40
2022,02,05,14,35,8.50
2022,02,05,14,36,8.50
2022,02,05,14,37,8.50
2022,02,05,14,38,8.50
2022,02,05,14,39,8.50
2022,02,05,14,40,8.50
2022,02,05,14,41,8.50
2022,02,05,14,42,8.50
2022,02,05,14,43,8.50
2022,02,05,14,44,8.60
2022,02,05,14,45,8.60
2022,02,05,14,46,8.60
2022,02,05,14,47,8.70
2022,02,05,14,48,8.70
2022,02,05,14,49,8.70
2022,02,05,14,50,8.70
2022,02,05,14,51,8.70
2022,02,05,14,52,8.70
2022,02,05,14,53,8.70
2022,02,05,14,54,8.70
2022,02,05,14,55,8.70
2022,02,05,14,56,8.70
2022,02,05,14,57,8.70
2022,02,05,14,58,8.70
2022,02,05,14,59,8.60
2022,02,05,15,00,8.60
2022,02,05,15,01,8.70
2022,02,05,15,02,8.70
2022,02,05,15,03,8.70
2022,02,05,15,04,8.70
2022,02,05,15,05,8.70
2022,02,05,15,06,8.70
2022,02,05,15,07,8.70
2022,02,05,15,08,8.70
2022,02,05,15,09,8.70
2022,02,05,15,10,8.70
2022,02,05,15,11,8.70
2022,02,05,15,12,8.70
2022,02,05,15,13,8.70
2022,02,05,15,14,8.70
2022,02,05,15,15,8.70
2022,02,05,15,16,8.70
2022,02,05,15,17,8.70
2022,02,05,15,18,8.70
2022,02,05,15,19,8.60
2022,02,05,15,20,8.60
2022,02,05,15,21,8.60
2022,02,05,15,22,8.50
2022,02,05,15,23,8.50
2022,02,05,15,24,8.40
2022,02,05,15,25,8.40
2022,02,05,15,26,8.30
2022,02,05,15,27,8.30
2022,02,05,15,28,8.20
2022,02,05,15,29,8.20
2022,02,05,15,30,8.20
2022,02,05,15,31,8.10
2022,02,05,15,32,8.10
2022,02,05,15,33,8.10
2022,02,05,15,34,8.10
2022,02,05,15,35,8.10
2022,02,05,15,36,8.10
2022,02,05,15,37,8.10
2022,02,05,15,38,8.10
2022,02,05,15,39,8.10
2022,02,05,15,40,8.10
2022,02,05,15,41,8.10
2022,02,05,15,42,8.10
2022,02,05,15,43,8.10
2022,02,05,15,44,8.10
2022,02,05,15,45,8.00
2022,02,05,15,46,8.00
2022,02,05,15,47,8.00
2022,02,05,15,48,8.00
2022,02,05,15,49,8.00
2022,02,05,15,50,7.90
2022,02,05,15,51,7.90
2022,02,05,15,52,7.90
2022,02,05,15,53,7.90
2022,02,05,15,54,7.90
2022,02,05,15,55,7.90
2022,02,05,15,56,7.90
2022,02,05,15,57,7.90
2022,02,05,15,58,7.90
2022,02,05,15,59,7.90
2022,02,05,16,00,7.90
2022,02,05,16,01,7.90
2022,02,05,16,02,7.90
2022,02,05,16,03,7.90
2022,02,05,16,04,7.90
2022,02,05,16,05,7.90
2022,02,05,16,06,7.90
2022,02,05,16,07,7.90
2022,02,05,16,08,7.90
2022,02,05,16,09,7.90
2022,02,05,16,10,7.90
2022,02,05,16,11,7.90
2022,02,05,16,12,7.90
2022,02,05,16,13,7.90
2022,02,05,16,14,7.90
2022,02,05,16,15,7.90
2022,02,05,16,16,7.90
2022,02,05,16,17,7.90
2022,02,05,16,18,7.90
2022,02,05,16,19,7.90
2022,02,05,16,20,7.90
2022,02,05,16,21,7.90
2022,02,05,16,22,7.90
2022,02,05,16,23,7.90
2022,02,05,16,24,7.90
2022,02,05,16,25,7.90
2022,02,05,16,26,7.90
2022,02,05,16,27,7.90
2022,02,05,16,28,7.90
2022,02,05,16,29,7.90
2022,02,05,16,30,7.90
2022,02,05,16,31,7.90
2022,02,05,16,32,7.90
2022,02,05,16,33,7.90
2022,02,05,16,34,7.90
2022,02,05,16,35,7.90
2022,02,05,16,36,7.90
2022,02,05,16,37,7.90
2022,02,05,16,38,7.90
2022,02,05,16,39,7.90
2022,02,05,16,40,7.90
2022,02,05,16,41,7.90
2022,02,05,16,42,7.90
2022,02,05,16,43,7.90
2022,02,05,16,44,7.90
2022,02,05,16,45,7.80
2022,02,05,16,46,7.90
2022,02,05,16,47,7.90
2022,02,05,16,48,7.90
2022,02,05,16,49,7.80
2022,02,05,16,50,7.80
2022,02,05,16,51,7.80
2022,02,05,16,52,7.80
2022,02,05,16,53,7.80
2022,02,05,16,54,7.80
2022,02,05,16,55,7.80
2022,02,05,16,56,7.80
2022,02,05,16,57,7.80
2022,02,05,16,58,7.80
2022,02,05,16,59,7.80
2022,02,05,17,00,7.80
2022,02,05,17,01,7.80
2022,02,05,17,02,7.70
2022,02,05,17,03,7.70
2022,02,05,17,04,7.70
2022,02,05,17,05,7.70
2022,02,05,17,06,7.70
2022,02,05,17,07,7.70
2022,02,05,17,08,7.70
2022,02,05,17,09,7.60
2022,02,05,17,10,7.60
2022,02,05,17,11,7.60
2022,02,05,17,12,7.60
2022,02,05,17,13,7.60
2022,02,05,17,14,7.60
2022,02,05,17,15,7.60
2022,02,05,17,16,7.60
2022,02,05,17,17,7.50
2022,02,05,17,18,7.50
2022,02,05,17,19,7.50
2022,02,05,17,20,7.50
2022,02,05,17,21,7.50
2022,02,05,17,22,7.40
2022,02,05,17,23,7.40
2022,02,05,17,24,7.40
2022,02,05,17,25,7.40
2022,02,05,17,26,7.40
2022,02,05,17,27,7.40
2022,02,05,17,28,7.40
2022,02,05,17,29,7.40
2022,02,05,17,30,7.40
2022,02,05,17,31,7.30
2022,02,05,17,32,7.30
2022,02,05,17,33,7.30
2022,02,05,17,34,7.30
2022,02,05,17,35,7.30
2022,02,05,17,36,7.30
2022,02,05,17,37,7.30
2022,02,05,17,38,7.30
2022,02,05,17,39,7.30
2022,02,05,17,40,7.20
2022,02,05,17,41,7.20
2022,02,05,17,42,7.20
2022,02,05,17,43,7.20
2022,02,05,17,44,7.20
2022,02,05,17,45,7.20
2022,02,05,17,46,7.20
2022,02,05,17,47,7.10
2022,02,05,17,48,7.10
2022,02,05,17,49,7.10
2022,02,05,17,50,7.10
2022,02,05,17,51,7.10
2022,02,05,17,52,7.00
2022,02,05,17,53,7.00
2022,02,05,17,54,7.00
2022,02,05,17,55,6.90
2022,02,05,17,56,6.90
2022,02,05,17,57,6.90
2022,02,05,17,58,6.90
2022,02,05,17,59,6.90
2022,02,05,18,00,6.80
2022,02,05,18,01,6.80
2022,02,05,18,02,6.80
2022,02,05,18,03,6.80
2022,02,05,18,04,6.80
2022,02,05,18,05,6.80
2022,02,05,18,06,6.80